[[{"header":{"parameterUnit":"m.s-1","parameterCategory":2,"la1":30.2991,"la2":30.254,"lo1":-89.0895,"lo2":-89.0444,"dy":0.0017,"dx":0.0017,"nx":28,"ny":28,"refTime":"2024-05-01T09:00:00:Z","depth":"0","parameterNumber":2,"parameterNumberName":"U-component_of_CURRENTS"},"data":[0,0,0,0,0,0,0,0,0,0,0,0,0,0,0,0,0,0,0,0,0,0,0,0,0,0,0,0,0,0,0,0,0,0,0,0,0,0,0,0,0,0,0,0,0,0,0,0,0,0,0,0,0,0,0,0,0,0,-0.2235,-0.2235,0,-0.2204,-0.2203,-0.2203,-0.2159,-0.2158,-0.2157,-0.2156,-0.2205,-0.2207,-0.2209,0,0,0,0,0,0,0,0,0,0,0,0,0,-0.2263,-0.2263,-0.2235,-0.2235,-0.2234,-0.2204,-0.2203,-0.2203,-0.2159,-0.2158,-0.2157,-0.2156,-0.2204,-0.2207,-0.2209,0,0,0,0,0,0,0,0,0,0,0,0,0,-0.2244,-0.2263,-0.2235,-0.2208,-0.2205,-0.2204,-0.2203,-0.2203,-0.2159,-0.2158,-0.2157,-0.2155,-0.2203,-0.2206,-0.2209,-0.2254,0,0,-0.2219,-0.222,0,0,0,0,0,0,0,0,-0.2245,-0.2243,-0.2212,-0.2209,-0.2206,-0.2183,-0.2231,-0.2224,-0.216,-0.2178,-0.2156,-0.2155,-0.2205,-0.2208,-0.2205,-0.2257,-0.2259,-0.2219,-0.2221,-0.2223,-0.2223,0,0,0,0,0,0,0,-0.2247,-0.2245,-0.2224,-0.2212,-0.2208,-0.2199,-0.2195,-0.2229,-0.2201,-0.2176,-0.2172,-0.2168,-0.2204,-0.2202,-0.2206,-0.2259,-0.2219,-0.2222,-0.2224,-0.2225,-0.2362,-0.2364,0,0,0,0,0,0,-0.225,-0.2246,-0.2225,-0.2223,-0.2222,-0.2199,-0.2195,-0.2193,-0.2199,-0.2198,-0.2169,-0.2166,-0.2198,-0.2203,-0.2208,-0.227,-0.2222,-0.2225,-0.2227,-0.2361,-0.2363,-0.2365,0,0,0,0,0,0,-0.225,-0.2248,-0.2226,-0.2232,-0.2229,-0.22,-0.2198,-0.2193,-0.2187,-0.2193,-0.2193,-0.2167,-0.2197,-0.2204,-0.2242,-0.2271,-0.2227,-0.223,-0.2359,-0.2361,-0.2364,-0.239,0,0,0,0,0,0,-0.2252,-0.2249,-0.225,-0.2233,-0.2228,-0.2231,-0.2199,-0.2193,-0.2185,-0.2181,-0.2192,-0.2195,-0.2196,-0.2238,-0.2246,-0.2275,-0.2232,-0.2356,-0.236,-0.2363,-0.2387,-0.2393,-0.2398,0,0,0,0,0,-0.2253,-0.226,-0.225,-0.2247,-0.223,-0.2232,-0.223,-0.2205,-0.2187,-0.2194,-0.22,-0.2194,-0.2264,-0.2242,-0.2251,-0.2281,-0.2355,-0.2359,-0.2363,-0.2384,-0.2392,-0.2398,0,0,0,0,0,0,-0.2261,-0.2255,-0.2244,-0.2245,-0.2241,-0.2224,-0.2224,-0.2211,-0.222,-0.2217,-0.2217,-0.2222,-0.227,-0.2277,-0.2252,-0.2333,-0.231,-0.2316,-0.2323,-0.233,-0.2336,-0.2362,-0.2235,0,0,0,0,0,-0.2267,-0.2275,-0.2264,-0.2264,-0.2264,-0.2246,-0.2243,-0.2232,-0.2234,-0.2234,-0.2247,-0.2266,-0.2296,-0.2311,-0.2341,-0.2386,-0.2388,-0.2413,-0.2419,-0.2423,-0.2453,-0.2464,-0.2473,-0.2378,-0.2378,-0.2378,0,0,-0.2263,-0.2266,-0.2264,-0.2268,-0.2259,-0.2284,-0.2241,-0.2243,-0.227,-0.2244,-0.229,-0.2293,-0.2314,-0.236,-0.2382,-0.2367,-0.245,-0.2429,-0.2432,-0.2459,-0.2469,-0.2478,-0.2486,-0.2381,-0.238,-0.238,0,0,-0.228,-0.2269,-0.2289,-0.2302,-0.2305,-0.2303,-0.2308,-0.2305,-0.2308,-0.2347,-0.2338,-0.2362,-0.2403,-0.2425,-0.244,-0.2504,-0.2483,-0.2505,-0.2553,-0.2563,-0.2571,-0.2577,-0.2577,-0.2584,-0.2503,-0.2503,-0.2503,0,-0.2262,-0.2308,-0.2293,-0.233,-0.2347,-0.232,-0.2356,-0.2365,-0.2379,-0.2397,-0.237,-0.2435,-0.2443,-0.2506,-0.2519,-0.2519,-0.251,-0.2517,-0.2569,-0.2576,-0.2582,-0.2581,-0.2587,-0.2505,-0.2505,-0.2505,-0.2505,0,-0.2305,-0.2352,-0.2366,-0.241,-0.2425,-0.245,-0.2463,-0.2484,-0.248,-0.2488,-0.2539,-0.2541,-0.2573,-0.2578,-0.2566,-0.2623,-0.2596,-0.2572,-0.2544,-0.2593,-0.2588,-0.2595,-0.2508,-0.2507,-0.2506,-0.2506,0,0,-0.2211,-0.2367,-0.237,-0.2433,-0.2474,-0.2492,-0.2545,-0.2585,-0.2616,-0.263,-0.2671,-0.2711,-0.2686,-0.2704,-0.2686,-0.2698,-0.2719,-0.2652,-0.2651,-0.2642,-0.2727,-0.2557,-0.2547,-0.2687,-0.2688,-0.269,-0.2699,0,-0.2237,-0.2373,-0.2423,-0.2526,-0.2589,-0.2606,-0.2658,-0.2691,-0.27,-0.2735,-0.274,-0.2766,-0.274,-0.2731,-0.2748,-0.2723,-0.274,-0.2719,-0.2693,-0.2693,-0.2526,-0.2551,-0.238,-0.236,-0.2706,-0.2707,-0.2708,0,-0.2229,-0.2348,-0.2476,-0.2625,-0.2644,-0.2688,-0.2752,-0.2794,-0.2835,-0.2837,-0.286,-0.2844,-0.2873,-0.2824,-0.2839,-0.2816,-0.279,-0.2771,-0.2769,-0.2613,-0.2535,-0.2373,-0.2359,-0.2332,-0.2718,-0.2717,-0.2716,0,-0.2176,-0.2357,-0.2478,-0.2527,-0.2683,-0.2723,-0.2772,-0.282,-0.2849,-0.2884,-0.2888,-0.2921,-0.2908,-0.2905,-0.2849,-0.284,-0.2844,-0.2823,-0.2663,-0.2651,-0.2506,-0.2476,-0.2456,-0.2856,-0.2856,-0.2855,-0.2855,0,-0.2163,-0.2245,-0.2475,-0.2538,-0.2653,-0.2731,-0.2797,-0.2843,-0.2887,-0.2916,-0.2925,-0.293,-0.2922,-0.2906,-0.2875,-0.277,-0.2862,-0.2685,-0.2644,-0.2506,-0.2477,-0.2446,-0.2482,-0.2856,-0.2856,-0.2856,-0.2856,0,-0.2044,-0.2209,-0.2355,-0.2571,-0.2633,-0.2691,-0.2808,-0.2846,-0.2888,-0.2917,-0.2919,-0.2934,-0.2883,-0.2864,-0.2839,-0.2767,-0.2639,-0.2658,-0.2483,-0.2419,-0.2197,-0.2241,-0.221,-0.2155,-0.2478,-0.2473,-0.247,0,-0.1989,-0.207,-0.2348,-0.2438,-0.2529,-0.2645,-0.2712,-0.2818,-0.2849,-0.2905,-0.2908,-0.2878,-0.2786,-0.2676,-0.2562,-0.2457,-0.2497,-0.2257,-0.2211,-0.2164,-0.2187,-0.2233,-0.2195,-0.2041,-0.2034,-0.2029,-0.2025,0,-0.1871,-0.198,-0.212,-0.2319,-0.2438,-0.2555,-0.266,-0.2688,-0.2783,-0.2763,-0.2706,-0.2628,-0.2541,-0.2304,-0.2181,-0.2118,-0.2161,-0.2134,-0.2148,-0.1892,-0.1887,-0.1818,-0.2068,-0.1975,-0.198,-0.1984,-0.1987,-0.1989,-0.1744,-0.181,-0.2001,-0.2151,-0.2299,-0.237,-0.2377,-0.2448,-0.2412,-0.2323,-0.2406,-0.2208,-0.2102,-0.1851,-0.1804,-0.1652,-0.1789,-0.158,-0.1655,-0.1721,-0.1607,-0.1728,-0.1539,-0.1541,-0.1543,-0.1545,-0.1547,0,-0.156,-0.1662,-0.1809,-0.1972,-0.2031,-0.2178,-0.2264,-0.2194,-0.2053,-0.2013,-0.1861,-0.1654,-0.1438,-0.1429,-0.129,-0.1202,-0.1224,-0.1202,-0.127,-0.1268,-0.1407,-0.1322,-0.1,-0.1,-0.1,-0.1,-0.1,-0.1001,-0.1473,-0.1526,-0.1614,-0.1643,-0.1748,-0.1736,-0.174,-0.1643,-0.158,-0.1319,-0.1194,-0.1146,-0.1171,-0.1185,-0.1078,-0.1021,-0.1065,-0.0986,-0.1102,-0.1234,-0.1277,-0.1318,-0.1245,-0.0913,-0.0913,-0.0874,-0.0874,-0.0874]},{"header":{"parameterUnit":"m.s-1","parameterCategory":2,"la1":30.2991,"la2":30.254,"lo1":-89.0895,"lo2":-89.0444,"dy":0.0017,"dx":0.0017,"nx":28,"ny":28,"refTime":"2024-05-01T09:00:00:Z","depth":"0","parameterNumber":3,"parameterNumberName":"V-component_of_CURRENTS"},"data":[0,0,0,0,0,0,0,0,0,0,0,0,0,0,0,0,0,0,0,0,0,0,0,0,0,0,0,0,0,0,0,0,0,0,0,0,0,0,0,0,0,0,0,0,0,0,0,0,0,0,0,0,0,0,0,0,0,0,-0.0891,-0.0891,0,-0.0868,-0.0868,-0.0867,-0.0809,-0.0808,-0.0807,-0.0806,-0.0659,-0.0656,-0.0653,0,0,0,0,0,0,0,0,0,0,0,0,0,-0.084,-0.0841,-0.0891,-0.0891,-0.0891,-0.0868,-0.0868,-0.0867,-0.0809,-0.0808,-0.0806,-0.0805,-0.066,-0.0657,-0.0653,0,0,0,0,0,0,0,0,0,0,0,0,0,-0.0842,-0.0841,-0.0891,-0.0861,-0.0858,-0.0868,-0.0868,-0.0867,-0.0809,-0.0808,-0.0806,-0.0805,-0.0661,-0.0657,-0.0653,-0.0657,0,0,-0.0639,-0.0637,0,0,0,0,0,0,0,0,-0.0842,-0.0844,-0.0865,-0.0863,-0.086,-0.0842,-0.0796,-0.0791,-0.0809,-0.0825,-0.0806,-0.0804,-0.0711,-0.0703,-0.07,-0.065,-0.0644,-0.0639,-0.0636,-0.0634,-0.0633,0,0,0,0,0,0,0,-0.0842,-0.0844,-0.088,-0.0865,-0.0862,-0.0833,-0.0832,-0.0795,-0.0773,-0.0824,-0.082,-0.0822,-0.0708,-0.0705,-0.0696,-0.0641,-0.0639,-0.0635,-0.0632,-0.0631,-0.0485,-0.0484,0,0,0,0,0,0,-0.0854,-0.0845,-0.088,-0.0879,-0.0849,-0.0836,-0.0834,-0.0847,-0.0776,-0.0766,-0.0823,-0.0819,-0.0713,-0.0701,-0.0691,-0.0607,-0.0634,-0.063,-0.0628,-0.0487,-0.0485,-0.0484,0,0,0,0,0,0,-0.0853,-0.0858,-0.0881,-0.0862,-0.0863,-0.0839,-0.0854,-0.0848,-0.0837,-0.0777,-0.0763,-0.0818,-0.0712,-0.0697,-0.0639,-0.0604,-0.0628,-0.0624,-0.0488,-0.0486,-0.0484,-0.0494,0,0,0,0,0,0,-0.0852,-0.0858,-0.0868,-0.0864,-0.0865,-0.088,-0.0855,-0.0848,-0.0842,-0.0836,-0.0769,-0.0754,-0.0709,-0.0646,-0.0635,-0.0598,-0.0621,-0.049,-0.0487,-0.0485,-0.0495,-0.0493,-0.049,0,0,0,0,0,-0.085,-0.0872,-0.0869,-0.0873,-0.0882,-0.0881,-0.0878,-0.0853,-0.0844,-0.0839,-0.0786,-0.0756,-0.0623,-0.0643,-0.0629,-0.059,-0.0491,-0.0488,-0.0485,-0.0496,-0.0493,-0.049,0,0,0,0,0,0,-0.0837,-0.0868,-0.0865,-0.0889,-0.0883,-0.0871,-0.0872,-0.086,-0.082,-0.0812,-0.0751,-0.0732,-0.0665,-0.0634,-0.0657,-0.0541,-0.0548,-0.0543,-0.0561,-0.0557,-0.0555,-0.0554,-0.0617,0,0,0,0,0,-0.0848,-0.0878,-0.0883,-0.0898,-0.0903,-0.0891,-0.0888,-0.0875,-0.0844,-0.0827,-0.0777,-0.0715,-0.0648,-0.0609,-0.0557,-0.0505,-0.0483,-0.0467,-0.0465,-0.0463,-0.0453,-0.0408,-0.0401,-0.0475,-0.0475,-0.0475,0,0,-0.0839,-0.0866,-0.0876,-0.0899,-0.0896,-0.0886,-0.0884,-0.0886,-0.0856,-0.0816,-0.0757,-0.0712,-0.0635,-0.0565,-0.0531,-0.053,-0.0431,-0.046,-0.0459,-0.0449,-0.0405,-0.0398,-0.0391,-0.0473,-0.0473,-0.0474,0,0,-0.084,-0.0871,-0.0891,-0.0894,-0.0905,-0.0893,-0.0895,-0.0885,-0.0859,-0.0813,-0.0762,-0.0697,-0.0615,-0.0541,-0.0493,-0.045,-0.0427,-0.0435,-0.0412,-0.037,-0.0364,-0.0358,-0.033,-0.0321,-0.0426,-0.0426,-0.0426,0,-0.0817,-0.0856,-0.0889,-0.0901,-0.0895,-0.0894,-0.0885,-0.0861,-0.0823,-0.0794,-0.0789,-0.0651,-0.0593,-0.0482,-0.0458,-0.0441,-0.0428,-0.0432,-0.0368,-0.0362,-0.0356,-0.0328,-0.0319,-0.0426,-0.0426,-0.0426,-0.0426,0,-0.0828,-0.085,-0.0863,-0.0875,-0.0871,-0.0871,-0.0848,-0.0829,-0.0804,-0.0768,-0.0682,-0.061,-0.0525,-0.049,-0.0454,-0.037,-0.0379,-0.038,-0.0381,-0.035,-0.0322,-0.0312,-0.0426,-0.0426,-0.0426,-0.0426,0,0,-0.0779,-0.0854,-0.0851,-0.0868,-0.0862,-0.0865,-0.0816,-0.0774,-0.0753,-0.0688,-0.0642,-0.051,-0.0492,-0.0436,-0.0388,-0.0338,-0.0283,-0.0342,-0.034,-0.0324,-0.0204,-0.0089,-0.0068,-0.0284,-0.0282,-0.0281,-0.0206,0,-0.0761,-0.0804,-0.0826,-0.0824,-0.0842,-0.0827,-0.0789,-0.0749,-0.0714,-0.0673,-0.0579,-0.052,-0.0463,-0.044,-0.0371,-0.032,-0.0256,-0.0304,-0.0227,-0.0225,-0.0134,-0.0051,-0.0011,0.0071,-0.0196,-0.0194,-0.0193,0,-0.0746,-0.0791,-0.0808,-0.0842,-0.0843,-0.0826,-0.0795,-0.0762,-0.0694,-0.0669,-0.0586,-0.0541,-0.0431,-0.0418,-0.027,-0.0312,-0.0246,-0.0202,-0.0199,-0.0077,-0.0089,-0.0,0.0098,0.0204,-0.0178,-0.0179,-0.018,0,-0.0726,-0.0765,-0.0791,-0.0798,-0.0826,-0.0815,-0.0804,-0.0755,-0.0749,-0.0674,-0.0677,-0.0539,-0.0499,-0.0387,-0.0254,-0.0282,-0.0114,-0.0147,0.003,0.0037,0.0099,0.011,0.0306,-0.0031,-0.0031,-0.0031,-0.0032,0,-0.0707,-0.0728,-0.0796,-0.0815,-0.0844,-0.0835,-0.084,-0.0814,-0.0784,-0.0773,-0.0683,-0.064,-0.0496,-0.038,-0.0262,-0.0057,-0.0106,0.0066,0.0085,0.0098,0.0108,0.0225,0.025,-0.0028,-0.0029,-0.003,-0.003,0,-0.069,-0.0729,-0.0783,-0.0831,-0.085,-0.087,-0.0902,-0.091,-0.0871,-0.0862,-0.0845,-0.0725,-0.0545,-0.0373,-0.0187,-0.0065,0.0203,0.0195,0.0207,0.023,0.0489,0.0511,0.0738,0.0825,0.038,0.0383,0.0387,0,-0.0701,-0.0725,-0.0812,-0.0869,-0.0899,-0.0938,-0.0972,-0.0953,-0.0967,-0.0894,-0.0894,-0.0722,-0.0547,-0.0209,0.0044,0.031,0.0371,0.0472,0.0458,0.0558,0.0593,0.0597,0.0651,0.0512,0.0516,0.0519,0.0522,0,-0.0724,-0.0746,-0.0801,-0.0915,-0.0977,-0.1038,-0.1077,-0.1102,-0.1063,-0.1013,-0.0877,-0.0718,-0.0366,-0.0007,0.0338,0.048,0.0573,0.0548,0.0644,0.0742,0.0764,0.0835,0.0387,0.055,0.0547,0.0545,0.0544,0.0543,-0.075,-0.0793,-0.0867,-0.0964,-0.1042,-0.1104,-0.112,-0.1115,-0.1076,-0.094,-0.0827,-0.0521,-0.0083,0.0445,0.0614,0.0919,0.0852,0.0965,0.0985,0.0981,0.1087,0.0724,0.0922,0.0921,0.0921,0.092,0.092,0,-0.0789,-0.0828,-0.0921,-0.1025,-0.1089,-0.1122,-0.1169,-0.1122,-0.1014,-0.0835,-0.0616,-0.0091,0.0358,0.0721,0.1156,0.132,0.1325,0.1367,0.1347,0.1383,0.1055,0.1086,0.1339,0.1339,0.1338,0.1338,0.1338,0.1338,-0.0822,-0.0889,-0.0925,-0.1035,-0.1094,-0.1129,-0.1131,-0.1009,-0.0866,-0.0509,-0.0186,0.008,0.0556,0.1211,0.1587,0.1616,0.1728,0.1726,0.1792,0.1515,0.1476,0.1439,0.1477,0.1808,0.1809,0.21,0.2103,0.2105]}],[{"header":{"parameterUnit":"m.s-1","parameterCategory":2,"la1":30.2991,"la2":30.254,"lo1":-89.0895,"lo2":-89.0444,"dy":0.0017,"dx":0.0017,"nx":28,"ny":28,"refTime":"2024-05-01T09:00:00:Z","depth":"2","parameterNumber":2,"parameterNumberName":"U-component_of_CURRENTS"},"data":[0,0,0,0,0,0,0,0,0,0,0,0,0,0,0,0,0,0,0,0,0,0,0,0,0,0,0,0,0,0,0,0,0,0,0,0,0,0,0,0,0,0,0,0,0,0,0,0,0,0,0,0,0,0,0,0,0,0,-0.1038,-0.1037,0,-0.0983,-0.0983,-0.0982,-0.0996,-0.0997,-0.0997,-0.0998,-0.1027,-0.1028,-0.1028,0,0,0,0,0,0,0,0,0,0,0,0,0,-0.1158,-0.1156,-0.1038,-0.1037,-0.1036,-0.0983,-0.0983,-0.0982,-0.0996,-0.0997,-0.0998,-0.0998,-0.1027,-0.1028,-0.1028,0,0,0,0,0,0,0,0,0,0,0,0,0,-0.1108,-0.1155,-0.1038,-0.1033,-0.1032,-0.0983,-0.0983,-0.0982,-0.0996,-0.0997,-0.0998,-0.0999,-0.1027,-0.1028,-0.1028,-0.1008,0,0,-0.1028,-0.1028,0,0,0,0,0,0,0,0,-0.1111,-0.1104,-0.1035,-0.1033,-0.1032,-0.0994,-0.1035,-0.0994,-0.0995,-0.1014,-0.0998,-0.0999,-0.1021,-0.1021,-0.1013,-0.1009,-0.101,-0.1028,-0.1028,-0.1028,-0.1029,0,0,0,0,0,0,0,-0.1114,-0.1107,-0.102,-0.1034,-0.1032,-0.1035,-0.1029,-0.1028,-0.1017,-0.1012,-0.1012,-0.0999,-0.1021,-0.1013,-0.1014,-0.1011,-0.1028,-0.1028,-0.1029,-0.1029,-0.1065,-0.1065,0,0,0,0,0,0,-0.1111,-0.111,-0.1022,-0.1018,-0.107,-0.1031,-0.1026,-0.1008,-0.1015,-0.1015,-0.0998,-0.1,-0.1012,-0.1014,-0.1015,-0.1073,-0.1028,-0.1029,-0.1029,-0.1064,-0.1065,-0.1066,0,0,0,0,0,0,-0.1114,-0.1104,-0.1024,-0.106,-0.105,-0.1028,-0.1009,-0.1007,-0.1016,-0.1003,-0.1006,-0.1012,-0.1013,-0.1015,-0.1038,-0.1072,-0.1029,-0.1029,-0.1063,-0.1064,-0.1065,-0.1137,0,0,0,0,0,0,-0.1118,-0.1105,-0.1103,-0.1059,-0.1047,-0.1017,-0.1007,-0.1005,-0.1004,-0.1006,-0.1015,-0.1017,-0.1014,-0.1038,-0.1039,-0.1071,-0.1029,-0.1062,-0.1063,-0.1065,-0.1134,-0.1141,-0.1147,0,0,0,0,0,-0.1122,-0.1107,-0.1103,-0.1093,-0.1041,-0.1017,-0.1012,-0.1003,-0.1004,-0.1015,-0.1023,-0.1018,-0.1049,-0.1039,-0.1039,-0.1073,-0.1061,-0.1063,-0.1065,-0.1131,-0.114,-0.1147,0,0,0,0,0,0,-0.1155,-0.1105,-0.11,-0.107,-0.1057,-0.1018,-0.1016,-0.1011,-0.1022,-0.1029,-0.1026,-0.103,-0.1058,-0.1052,-0.1041,-0.1086,-0.1055,-0.1057,-0.1105,-0.1113,-0.1119,-0.1157,-0.1029,0,0,0,0,0,-0.116,-0.1139,-0.1101,-0.1083,-0.1073,-0.105,-0.1042,-0.1036,-0.103,-0.1036,-0.1041,-0.1049,-0.106,-0.1078,-0.1076,-0.1104,-0.114,-0.1125,-0.1132,-0.1137,-0.1168,-0.1241,-0.1259,-0.1072,-0.1072,-0.1072,0,0,-0.1166,-0.1136,-0.1125,-0.109,-0.1074,-0.1075,-0.105,-0.1039,-0.1063,-0.1037,-0.1075,-0.1065,-0.1068,-0.1098,-0.1112,-0.1105,-0.121,-0.114,-0.1145,-0.1173,-0.1246,-0.1264,-0.1281,-0.1073,-0.1073,-0.1073,0,0,-0.1168,-0.1144,-0.1132,-0.1126,-0.1104,-0.1095,-0.1098,-0.1075,-0.1093,-0.1112,-0.1105,-0.1128,-0.1133,-0.1157,-0.1166,-0.1209,-0.1232,-0.1198,-0.1279,-0.135,-0.1367,-0.1382,-0.1463,-0.1485,-0.1215,-0.1215,-0.1215,0,-0.1182,-0.1161,-0.113,-0.1127,-0.1135,-0.1111,-0.1127,-0.1134,-0.1131,-0.1168,-0.1138,-0.1187,-0.117,-0.1248,-0.1251,-0.123,-0.1275,-0.125,-0.1362,-0.1378,-0.1393,-0.1472,-0.1495,-0.1219,-0.1218,-0.1218,-0.1217,0,-0.1178,-0.1177,-0.117,-0.1167,-0.1177,-0.118,-0.1188,-0.1218,-0.1227,-0.1244,-0.1311,-0.1295,-0.1331,-0.1323,-0.1295,-0.1393,-0.1394,-0.1353,-0.135,-0.1417,-0.1495,-0.1518,-0.1224,-0.1223,-0.1221,-0.122,0,0,-0.1175,-0.117,-0.1172,-0.12,-0.1205,-0.1217,-0.127,-0.1325,-0.1403,-0.1396,-0.1502,-0.1488,-0.1481,-0.1491,-0.1469,-0.1528,-0.1643,-0.1487,-0.1489,-0.1582,-0.1824,-0.1582,-0.1584,-0.1626,-0.163,-0.1634,-0.1843,0,-0.1191,-0.1195,-0.1203,-0.1256,-0.1268,-0.1303,-0.1375,-0.1432,-0.1478,-0.1573,-0.1586,-0.1648,-0.1547,-0.1573,-0.1612,-0.163,-0.1706,-0.1592,-0.1734,-0.1739,-0.1526,-0.1602,-0.1446,-0.1596,-0.1865,-0.1869,-0.1872,0,-0.1193,-0.12,-0.1229,-0.1328,-0.1346,-0.1392,-0.153,-0.1591,-0.1713,-0.1757,-0.1815,-0.1819,-0.1884,-0.179,-0.1887,-0.1819,-0.1833,-0.1852,-0.1859,-0.1627,-0.1538,-0.1569,-0.1628,-0.191,-0.1907,-0.1905,-0.1902,0,-0.1196,-0.1242,-0.1273,-0.1291,-0.1378,-0.1447,-0.1523,-0.1648,-0.1746,-0.1876,-0.1953,-0.2017,-0.2055,-0.2088,-0.2026,-0.1993,-0.2144,-0.2104,-0.1927,-0.1912,-0.1802,-0.1767,-0.2221,-0.2221,-0.2221,-0.222,-0.2219,0,-0.1208,-0.1245,-0.1281,-0.1298,-0.1422,-0.1475,-0.1641,-0.173,-0.1881,-0.1999,-0.2035,-0.2104,-0.2129,-0.217,-0.2135,-0.2064,-0.222,-0.1969,-0.195,-0.1816,-0.1781,-0.2058,-0.2036,-0.2228,-0.2226,-0.2224,-0.2223,0,-0.1207,-0.1213,-0.127,-0.1361,-0.1415,-0.1504,-0.1707,-0.1824,-0.1947,-0.2103,-0.2142,-0.2218,-0.221,-0.2217,-0.2275,-0.2172,-0.2159,-0.2106,-0.1929,-0.1878,-0.1883,-0.1863,-0.1991,-0.1984,-0.1978,-0.1973,-0.1969,0,-0.1205,-0.1212,-0.1308,-0.1365,-0.1414,-0.1558,-0.1675,-0.1841,-0.1948,-0.2126,-0.2186,-0.2235,-0.2142,-0.2118,-0.202,-0.1955,-0.2035,-0.178,-0.165,-0.1892,-0.1862,-0.185,-0.1838,-0.1585,-0.1578,-0.1572,-0.1568,0,-0.1199,-0.1217,-0.1254,-0.135,-0.1462,-0.16,-0.1755,-0.1831,-0.1999,-0.2054,-0.2053,-0.1981,-0.1958,-0.1734,-0.1645,-0.159,-0.1758,-0.1652,-0.203,-0.1587,-0.1502,-0.1473,-0.1478,-0.1518,-0.1523,-0.1526,-0.1529,-0.1531,-0.1189,-0.1212,-0.1224,-0.1329,-0.1448,-0.1524,-0.1551,-0.1661,-0.1693,-0.1693,-0.1784,-0.1616,-0.1631,-0.1309,-0.1254,-0.1254,-0.1363,-0.1317,-0.134,-0.1368,-0.1202,-0.1103,-0.1018,-0.102,-0.1022,-0.1024,-0.1025,0,-0.1136,-0.1143,-0.1212,-0.1274,-0.1329,-0.1432,-0.1513,-0.146,-0.1347,-0.1404,-0.1304,-0.1104,-0.0922,-0.0979,-0.0875,-0.083,-0.0904,-0.0808,-0.0922,-0.0969,-0.1011,-0.0833,-0.055,-0.0549,-0.0548,-0.0547,0,0,-0.1095,-0.1085,-0.1097,-0.1094,-0.1153,-0.1105,-0.1078,-0.0999,-0.097,-0.0809,-0.0745,-0.0792,-0.086,-0.068,-0.0657,-0.0584,-0.0777,-0.0553,-0.0926,-0.1101,-0.1143,-0.1282,-0.1053,0,0,0,0,0]},{"header":{"parameterUnit":"m.s-1","parameterCategory":2,"la1":30.2991,"la2":30.254,"lo1":-89.0895,"lo2":-89.0444,"dy":0.0017,"dx":0.0017,"nx":28,"ny":28,"refTime":"2024-05-01T09:00:00:Z","depth":"2","parameterNumber":3,"parameterNumberName":"V-component_of_CURRENTS"},"data":[0,0,0,0,0,0,0,0,0,0,0,0,0,0,0,0,0,0,0,0,0,0,0,0,0,0,0,0,0,0,0,0,0,0,0,0,0,0,0,0,0,0,0,0,0,0,0,0,0,0,0,0,0,0,0,0,0,0,0.0441,0.0442,0,0.0523,0.0524,0.0525,0.0525,0.0524,0.0523,0.0522,0.0513,0.0514,0.0515,0,0,0,0,0,0,0,0,0,0,0,0,0,0.0311,0.0313,0.044,0.0442,0.0443,0.0523,0.0524,0.0525,0.0525,0.0524,0.0523,0.0522,0.0513,0.0514,0.0515,0,0,0,0,0,0,0,0,0,0,0,0,0,0.0376,0.0314,0.044,0.0453,0.0455,0.0523,0.0524,0.0525,0.0525,0.0524,0.0522,0.0521,0.0513,0.0514,0.0515,0.0549,0,0,0.0518,0.0518,0,0,0,0,0,0,0,0,0.0373,0.0381,0.045,0.0453,0.0455,0.0513,0.0475,0.0529,0.0526,0.0498,0.0522,0.052,0.0507,0.0508,0.0526,0.0549,0.0549,0.0518,0.0518,0.0519,0.0519,0,0,0,0,0,0,0,0.0368,0.0378,0.0472,0.0452,0.0455,0.0465,0.0472,0.0486,0.0506,0.05,0.05,0.0512,0.0507,0.0526,0.0526,0.0548,0.0518,0.0519,0.0519,0.052,0.0514,0.0513,0,0,0,0,0,0,0.0361,0.0374,0.0469,0.0475,0.0411,0.0468,0.0476,0.0495,0.0508,0.051,0.0513,0.0512,0.0525,0.0525,0.0525,0.0472,0.0519,0.052,0.052,0.0515,0.0514,0.0513,0,0,0,0,0,0,0.0358,0.0369,0.0466,0.0426,0.0439,0.0472,0.0493,0.0497,0.0495,0.052,0.0519,0.0503,0.0523,0.0524,0.0514,0.0475,0.052,0.0521,0.0516,0.0515,0.0514,0.0426,0,0,0,0,0,0,0.0354,0.0368,0.037,0.0426,0.0441,0.049,0.0495,0.05,0.0506,0.0504,0.0511,0.051,0.0522,0.0513,0.0515,0.0477,0.0522,0.0517,0.0515,0.0514,0.0429,0.0422,0.0415,0,0,0,0,0,0.0349,0.0363,0.037,0.0381,0.0447,0.049,0.0498,0.0516,0.0506,0.0507,0.0504,0.0509,0.0505,0.0513,0.0516,0.0477,0.0517,0.0516,0.0514,0.0433,0.0423,0.0415,0,0,0,0,0,0,0.03,0.0366,0.0375,0.0405,0.0436,0.049,0.0493,0.0505,0.0508,0.0491,0.0507,0.0507,0.0483,0.0501,0.0509,0.0474,0.0509,0.0508,0.0446,0.0438,0.0431,0.0425,0.0523,0,0,0,0,0,0.0294,0.0322,0.0377,0.0394,0.0408,0.0445,0.046,0.0471,0.0488,0.0487,0.0487,0.0486,0.0486,0.0476,0.0485,0.047,0.0504,0.0446,0.0439,0.0432,0.0431,0.045,0.0444,0.0508,0.0508,0.0508,0,0,0.0277,0.0317,0.033,0.0385,0.0408,0.0415,0.0449,0.0463,0.0451,0.0485,0.0451,0.0464,0.048,0.0458,0.0448,0.046,0.0434,0.043,0.0424,0.0427,0.0448,0.0442,0.0436,0.0507,0.0507,0.0507,0,0,0.0257,0.0292,0.0304,0.0326,0.036,0.0383,0.038,0.0414,0.0409,0.0397,0.041,0.0403,0.0399,0.0404,0.0407,0.037,0.0401,0.036,0.0308,0.0326,0.0321,0.0317,0.0359,0.0359,0.0349,0.0348,0.0348,0,0.0222,0.025,0.0309,0.0317,0.0316,0.036,0.0344,0.0359,0.0376,0.0365,0.0367,0.0366,0.0375,0.0359,0.0337,0.0351,0.0374,0.0335,0.0316,0.0312,0.031,0.0354,0.0355,0.0344,0.0344,0.0345,0.0345,0,0.0217,0.0218,0.0223,0.0242,0.0254,0.0249,0.0276,0.0267,0.0259,0.0273,0.0253,0.0279,0.0276,0.0273,0.0288,0.0266,0.0294,0.0309,0.0334,0.0298,0.0347,0.035,0.0338,0.0339,0.034,0.0342,0,0,0.0164,0.0207,0.0198,0.0177,0.0205,0.0205,0.0187,0.0185,0.016,0.0173,0.0145,0.0152,0.017,0.0177,0.0199,0.0211,0.0211,0.0236,0.0239,0.0273,0.0261,0.0276,0.0282,0.0212,0.0212,0.0212,0.0306,0,0.0118,0.0109,0.0143,0.009,0.0075,0.0098,0.0077,0.0079,0.0085,0.0073,0.0107,0.0096,0.0133,0.0121,0.0139,0.0195,0.0213,0.0185,0.0298,0.0302,0.0314,0.0284,0.0251,0.0331,0.031,0.031,0.0311,0,0.0087,0.0079,0.0036,0.0001,-0.0007,-0.0034,-0.0071,-0.008,-0.0061,-0.0056,-0.0041,-0.0003,0.002,0.0054,0.0139,0.0114,0.0174,0.0227,0.0232,0.0279,0.0321,0.0364,0.0338,0.0317,0.0316,0.0316,0.0315,0,0.0016,-0.0012,-0.0058,-0.0067,-0.0082,-0.0122,-0.014,-0.0132,-0.0148,-0.0135,-0.0138,-0.0088,-0.007,0.0009,0.013,0.0119,0.0242,0.0246,0.0327,0.0331,0.0344,0.0348,0.0302,0.0302,0.0302,0.0301,0.0301,0,-0.0041,-0.0093,-0.0104,-0.0134,-0.022,-0.0201,-0.0273,-0.0275,-0.0266,-0.0282,-0.0214,-0.0192,-0.0086,0.0007,0.0111,0.024,0.0233,0.0317,0.0347,0.0313,0.0314,0.0333,0.0335,0.0305,0.0304,0.0303,0.0303,0,-0.0109,-0.0108,-0.018,-0.0225,-0.0252,-0.0317,-0.0365,-0.0398,-0.0376,-0.0389,-0.0389,-0.0282,-0.0158,-0.0017,0.0132,0.0212,0.0339,0.039,0.0358,0.038,0.042,0.0417,0.0466,0.0467,0.0468,0.0468,0.0469,0,-0.0136,-0.0171,-0.0256,-0.0319,-0.0353,-0.043,-0.0475,-0.0468,-0.0478,-0.0426,-0.0426,-0.0314,-0.0214,0.0031,0.0194,0.0378,0.039,0.0444,0.0407,0.0408,0.0433,0.0428,0.0424,0.0403,0.0403,0.0403,0.0403,0,-0.0204,-0.0238,-0.0298,-0.0417,-0.0496,-0.0558,-0.0608,-0.0623,-0.0592,-0.0558,-0.0464,-0.0379,-0.016,0.004,0.0258,0.0362,0.0405,0.0448,0.046,0.0358,0.0354,0.0376,0.0373,0.0403,0.0403,0.0403,0.0403,0.0403,-0.0267,-0.0335,-0.0416,-0.0534,-0.0613,-0.0665,-0.0689,-0.0689,-0.067,-0.0596,-0.0498,-0.0342,-0.0175,0.014,0.0306,0.0448,0.0435,0.0461,0.0459,0.0457,0.0424,0.0421,0.0479,0.048,0.048,0.048,0.048,0,-0.0327,-0.0412,-0.0528,-0.0649,-0.0724,-0.0743,-0.0758,-0.0734,-0.0675,-0.0594,-0.0481,-0.0267,-0.0058,0.0135,0.0351,0.0469,0.0457,0.049,0.0448,0.0446,0.0445,0.0409,0.0462,0.0462,0.0463,0.0463,0,0,-0.037,-0.0487,-0.0549,-0.0709,-0.0786,-0.0815,-0.08,-0.0744,-0.0658,-0.0541,-0.0418,-0.0287,-0.0055,0.0099,0.0251,0.0368,0.0375,0.0375,0.0372,0.03,0.0298,0.0406,0.0346,0,0,0,0,0]}],[{"header":{"parameterUnit":"m.s-1","parameterCategory":2,"la1":30.2991,"la2":30.254,"lo1":-89.0895,"lo2":-89.0444,"dy":0.0017,"dx":0.0017,"nx":28,"ny":28,"refTime":"2024-05-01T09:00:00:Z","depth":"4","parameterNumber":2,"parameterNumberName":"U-component_of_CURRENTS"},"data":[0,0,0,0,0,0,0,0,0,0,0,0,0,0,0,0,0,0,0,0,0,0,0,0,0,0,0,0,0,0,0,0,0,0,0,0,0,0,0,0,0,0,0,0,0,0,0,0,0,0,0,0,0,0,0,0,0,0,-0.0629,-0.0629,0,-0.0661,-0.0661,-0.0661,-0.0685,-0.0685,-0.0686,-0.0687,-0.0665,-0.0664,-0.0663,0,0,0,0,0,0,0,0,0,0,0,0,0,-0.0523,-0.0525,-0.0628,-0.0629,-0.063,-0.0661,-0.0661,-0.0661,-0.0685,-0.0685,-0.0686,-0.0687,-0.0666,-0.0664,-0.0663,0,0,0,0,0,0,0,0,0,0,0,0,0,-0.056,-0.0526,-0.0628,-0.0648,-0.0651,-0.0661,-0.0661,-0.0661,-0.0685,-0.0685,-0.0686,-0.0687,-0.0666,-0.0665,-0.0663,-0.0637,0,0,-0.0658,-0.0657,0,0,0,0,0,0,0,0,-0.0558,-0.0564,-0.0645,-0.0647,-0.065,-0.0673,-0.0617,-0.0652,-0.0684,-0.0668,-0.0687,-0.0687,-0.0665,-0.0663,-0.0663,-0.0636,-0.0635,-0.0658,-0.0657,-0.0656,-0.0656,0,0,0,0,0,0,0,-0.0556,-0.0562,-0.0638,-0.0645,-0.0648,-0.0634,-0.064,-0.0623,-0.0657,-0.0669,-0.0672,-0.0681,-0.0665,-0.0665,-0.0663,-0.0635,-0.0658,-0.0657,-0.0656,-0.0655,-0.0604,-0.0604,0,0,0,0,0,0,-0.0562,-0.056,-0.0637,-0.0639,-0.0609,-0.0636,-0.0643,-0.0662,-0.0659,-0.0661,-0.0681,-0.0682,-0.0667,-0.0665,-0.0662,-0.0669,-0.0656,-0.0655,-0.0654,-0.0605,-0.0604,-0.0604,0,0,0,0,0,0,-0.056,-0.0569,-0.0635,-0.0602,-0.061,-0.0638,-0.0658,-0.0662,-0.0675,-0.0669,-0.0669,-0.0692,-0.0668,-0.0664,-0.0652,-0.0667,-0.0654,-0.0653,-0.0605,-0.0605,-0.0604,-0.0658,0,0,0,0,0,0,-0.0557,-0.0568,-0.0582,-0.0603,-0.0613,-0.065,-0.0658,-0.0662,-0.068,-0.0683,-0.0678,-0.0676,-0.0668,-0.0655,-0.0651,-0.0665,-0.0651,-0.0606,-0.0605,-0.0604,-0.0657,-0.066,-0.0662,0,0,0,0,0,-0.0553,-0.0572,-0.0583,-0.0592,-0.0633,-0.065,-0.0653,-0.0672,-0.068,-0.0685,-0.0679,-0.0677,-0.0648,-0.0653,-0.0649,-0.0662,-0.0606,-0.0605,-0.0604,-0.0656,-0.0659,-0.0662,0,0,0,0,0,0,-0.0533,-0.0577,-0.0589,-0.0621,-0.0638,-0.0656,-0.0666,-0.0676,-0.0676,-0.0679,-0.067,-0.0668,-0.0658,-0.0646,-0.0653,-0.0642,-0.0627,-0.0625,-0.0667,-0.067,-0.0673,-0.0688,-0.065,0,0,0,0,0,-0.0536,-0.0564,-0.0594,-0.0618,-0.0629,-0.0647,-0.0657,-0.0669,-0.0675,-0.0677,-0.0672,-0.0661,-0.0648,-0.065,-0.0628,-0.0626,-0.0633,-0.063,-0.0632,-0.0635,-0.0642,-0.069,-0.0699,-0.0601,-0.0601,-0.0601,0,0,-0.0535,-0.0563,-0.0579,-0.0616,-0.0631,-0.0641,-0.0655,-0.0675,-0.068,-0.0672,-0.0671,-0.0662,-0.0644,-0.064,-0.0636,-0.0638,-0.0657,-0.0634,-0.0636,-0.0642,-0.0691,-0.0701,-0.071,-0.06,-0.0601,-0.0601,0,0,-0.054,-0.0572,-0.0592,-0.0606,-0.0635,-0.0644,-0.0652,-0.0671,-0.0679,-0.0674,-0.0671,-0.0675,-0.0649,-0.0654,-0.0649,-0.0649,-0.0659,-0.0642,-0.0684,-0.0731,-0.074,-0.0749,-0.0742,-0.075,-0.0657,-0.0657,-0.0657,0,-0.0537,-0.0567,-0.0597,-0.0613,-0.0623,-0.0645,-0.0653,-0.0662,-0.0672,-0.0686,-0.0676,-0.0676,-0.0656,-0.0678,-0.0677,-0.0658,-0.0675,-0.068,-0.0739,-0.0747,-0.0755,-0.0747,-0.0755,-0.0659,-0.0659,-0.0659,-0.0659,0,-0.055,-0.0571,-0.0582,-0.0611,-0.0622,-0.0634,-0.0652,-0.0663,-0.0672,-0.0688,-0.0708,-0.0697,-0.0709,-0.0701,-0.0687,-0.0737,-0.0723,-0.0731,-0.0742,-0.077,-0.0756,-0.0764,-0.0663,-0.0662,-0.0661,-0.0661,0,0,-0.0555,-0.0585,-0.0591,-0.0594,-0.0621,-0.0629,-0.0645,-0.0671,-0.0702,-0.071,-0.0752,-0.0736,-0.0762,-0.0757,-0.076,-0.0801,-0.085,-0.0799,-0.08,-0.0809,-0.0932,-0.0878,-0.088,-0.0891,-0.0893,-0.0895,-0.0891,0,-0.0555,-0.057,-0.0592,-0.0597,-0.06,-0.0626,-0.064,-0.0669,-0.0702,-0.0747,-0.077,-0.0801,-0.0777,-0.0803,-0.0839,-0.0848,-0.0877,-0.0848,-0.0888,-0.0887,-0.0853,-0.089,-0.0901,-0.0896,-0.0898,-0.0899,-0.09,0,-0.0563,-0.0568,-0.0572,-0.0588,-0.0595,-0.0601,-0.0645,-0.0665,-0.0739,-0.0774,-0.0835,-0.0867,-0.0913,-0.0898,-0.0945,-0.0938,-0.0936,-0.0941,-0.0942,-0.0883,-0.0849,-0.0867,-0.0913,-0.0912,-0.0911,-0.091,-0.091,0,-0.054,-0.0557,-0.0554,-0.0558,-0.058,-0.0589,-0.0606,-0.0672,-0.0706,-0.081,-0.086,-0.0931,-0.0957,-0.0999,-0.0996,-0.099,-0.1047,-0.1036,-0.0979,-0.0973,-0.0999,-0.099,-0.1079,-0.1079,-0.1079,-0.1079,-0.1079,0,-0.053,-0.0533,-0.0539,-0.0535,-0.0533,-0.0566,-0.0599,-0.0642,-0.0727,-0.0775,-0.0875,-0.0922,-0.0992,-0.103,-0.1032,-0.1021,-0.1073,-0.099,-0.0985,-0.1013,-0.1006,-0.1002,-0.0993,-0.1078,-0.1079,-0.1079,-0.1079,0,-0.0514,-0.0521,-0.0514,-0.0523,-0.0519,-0.0521,-0.0564,-0.0605,-0.0695,-0.0766,-0.0804,-0.0915,-0.0968,-0.1022,-0.107,-0.1041,-0.1056,-0.1037,-0.1039,-0.1032,-0.0933,-0.0927,-0.0975,-0.0973,-0.0972,-0.0971,-0.097,0,-0.0506,-0.0499,-0.0488,-0.0474,-0.0474,-0.0481,-0.0494,-0.0571,-0.0618,-0.0741,-0.0768,-0.0864,-0.0927,-0.0949,-0.1007,-0.1032,-0.102,-0.1011,-0.0994,-0.0941,-0.0931,-0.0926,-0.0922,-0.0968,-0.0967,-0.0967,-0.0967,0,-0.0484,-0.0485,-0.0481,-0.0432,-0.0425,-0.0428,-0.0448,-0.047,-0.0569,-0.0663,-0.0729,-0.0791,-0.0846,-0.0901,-0.0937,-0.0947,-0.102,-0.0997,-0.0999,-0.0983,-0.0933,-0.0923,-0.092,-0.0962,-0.0963,-0.0963,-0.0963,0,-0.0472,-0.046,-0.0434,-0.0393,-0.0381,-0.036,-0.0381,-0.0421,-0.0469,-0.0611,-0.0615,-0.0731,-0.0812,-0.0855,-0.0883,-0.0908,-0.0893,-0.0864,-0.0872,-0.0878,-0.0856,-0.0779,-0.0766,0,0,0,0,0,-0.0449,-0.0425,-0.0387,-0.0336,-0.0326,-0.0307,-0.0346,-0.0384,-0.0471,-0.0499,-0.056,-0.0619,-0.0696,-0.0753,-0.0762,-0.0836,-0.0888,-0.0843,-0.0855,-0.0937,-0.0942,-0.093,0,0,0,0,0,0,-0.043,-0.0407,-0.0373,-0.029,-0.0251,-0.0231,-0.0253,-0.0311,-0.0335,-0.0436,-0.0483,-0.0574,-0.0658,-0.0681,-0.0746,-0.0765,-0.0759,-0.0914,-0.0912,-0.0934,-0.0939,-0.0943,-0.0932,0,0,0,0,0]},{"header":{"parameterUnit":"m.s-1","parameterCategory":2,"la1":30.2991,"la2":30.254,"lo1":-89.0895,"lo2":-89.0444,"dy":0.0017,"dx":0.0017,"nx":28,"ny":28,"refTime":"2024-05-01T09:00:00:Z","depth":"4","parameterNumber":3,"parameterNumberName":"V-component_of_CURRENTS"},"data":[0,0,0,0,0,0,0,0,0,0,0,0,0,0,0,0,0,0,0,0,0,0,0,0,0,0,0,0,0,0,0,0,0,0,0,0,0,0,0,0,0,0,0,0,0,0,0,0,0,0,0,0,0,0,0,0,0,0,0.0464,0.0465,0,0.0535,0.0536,0.0537,0.0562,0.0561,0.0561,0.0561,0.0596,0.0597,0.0598,0,0,0,0,0,0,0,0,0,0,0,0,0,0.04,0.0401,0.0464,0.0465,0.0466,0.0535,0.0536,0.0537,0.0562,0.0561,0.0561,0.0561,0.0596,0.0597,0.0598,0,0,0,0,0,0,0,0,0,0,0,0,0,0.0445,0.0401,0.0464,0.0487,0.0489,0.0535,0.0536,0.0537,0.0562,0.0561,0.0561,0.0561,0.0595,0.0597,0.0599,0.0617,0,0,0.0604,0.0605,0,0,0,0,0,0,0,0,0.0442,0.0447,0.0482,0.0485,0.0488,0.0539,0.0526,0.0562,0.0562,0.0534,0.0561,0.056,0.0574,0.0577,0.0592,0.0619,0.0621,0.0604,0.0605,0.0606,0.0606,0,0,0,0,0,0,0,0.0439,0.0445,0.0492,0.0483,0.0487,0.051,0.0516,0.0534,0.0555,0.0537,0.0539,0.0547,0.0575,0.059,0.0593,0.0621,0.0604,0.0606,0.0607,0.0607,0.0618,0.0618,0,0,0,0,0,0,0.0428,0.0442,0.049,0.0494,0.0464,0.0511,0.0518,0.0523,0.0556,0.056,0.0547,0.0548,0.0588,0.0591,0.0594,0.0572,0.0606,0.0608,0.0609,0.0619,0.0618,0.0617,0,0,0,0,0,0,0.0427,0.0432,0.0487,0.047,0.0478,0.0513,0.0519,0.0525,0.0545,0.0564,0.0568,0.0561,0.0587,0.0592,0.0604,0.0575,0.0608,0.061,0.062,0.0619,0.0618,0.0556,0,0,0,0,0,0,0.0425,0.0431,0.0439,0.0469,0.0479,0.0514,0.052,0.0526,0.055,0.0552,0.0577,0.058,0.0587,0.0602,0.0606,0.0578,0.0611,0.0621,0.0619,0.0618,0.0559,0.0553,0.0548,0,0,0,0,0,0.0422,0.0435,0.0439,0.0445,0.0486,0.0515,0.0522,0.0545,0.0551,0.0562,0.0571,0.0579,0.0595,0.0603,0.0608,0.058,0.0622,0.062,0.0618,0.0562,0.0554,0.0548,0,0,0,0,0,0,0.0415,0.0439,0.0444,0.0464,0.0486,0.0519,0.0537,0.0549,0.0569,0.0569,0.0582,0.0586,0.0577,0.0596,0.0605,0.0578,0.0605,0.0604,0.056,0.0553,0.0547,0.053,0.0613,0,0,0,0,0,0.0415,0.0429,0.0453,0.047,0.0481,0.0509,0.0526,0.0539,0.0558,0.0567,0.058,0.0586,0.0575,0.058,0.0582,0.0584,0.0601,0.0565,0.056,0.0555,0.0544,0.0565,0.0561,0.0612,0.0612,0.0612,0,0,0.0417,0.0433,0.0441,0.047,0.049,0.0488,0.0519,0.0544,0.0527,0.0567,0.0558,0.057,0.0571,0.0556,0.0554,0.057,0.0546,0.0552,0.0548,0.054,0.0563,0.0558,0.0554,0.061,0.0611,0.0611,0,0,0.042,0.0441,0.0448,0.0458,0.0485,0.0492,0.0496,0.0525,0.0526,0.0528,0.053,0.0526,0.054,0.0519,0.051,0.0479,0.0512,0.0486,0.0447,0.0468,0.0464,0.0461,0.046,0.0457,0.0487,0.0487,0.0486,0,0.0417,0.0423,0.0457,0.0457,0.0449,0.0485,0.0469,0.0475,0.05,0.0486,0.0514,0.0504,0.0507,0.0461,0.0446,0.0461,0.0487,0.0471,0.046,0.0457,0.0455,0.0456,0.0454,0.0483,0.0484,0.0484,0.0484,0,0.0416,0.0415,0.0421,0.0416,0.0416,0.0416,0.0413,0.0413,0.0418,0.0419,0.0399,0.0419,0.041,0.0406,0.0416,0.0389,0.0416,0.0448,0.0477,0.0446,0.0449,0.0448,0.0479,0.048,0.0481,0.0482,0,0,0.0404,0.0415,0.0412,0.0387,0.0387,0.0379,0.0346,0.0318,0.0287,0.0317,0.0283,0.027,0.0304,0.0297,0.0318,0.0335,0.033,0.0389,0.0392,0.0386,0.0375,0.0358,0.0356,0.0382,0.0381,0.0381,0.0378,0,0.0381,0.0367,0.0369,0.032,0.0301,0.0294,0.025,0.0228,0.0227,0.0209,0.0224,0.0213,0.0255,0.0263,0.0282,0.0325,0.0328,0.0328,0.0408,0.0409,0.0396,0.0354,0.038,0.0377,0.0377,0.0377,0.0377,0,0.0361,0.0349,0.0314,0.0249,0.0237,0.0208,0.0137,0.0108,0.0086,0.0089,0.0099,0.0132,0.014,0.0199,0.025,0.0262,0.0303,0.0342,0.0344,0.0349,0.039,0.0419,0.0375,0.0375,0.0375,0.0376,0.0376,0,0.0326,0.029,0.0256,0.024,0.019,0.0152,0.0114,0.0076,0.0034,0.0033,0.0026,0.0056,0.0077,0.0147,0.023,0.0252,0.0301,0.0338,0.0348,0.0348,0.0394,0.0398,0.0358,0.0358,0.0358,0.0358,0.0358,0,0.0286,0.0249,0.024,0.0218,0.0141,0.0118,0.0037,0.0011,-0.0026,-0.0074,-0.0023,-0.0029,0.0076,0.0124,0.0204,0.0268,0.0279,0.0322,0.0342,0.0366,0.0366,0.0392,0.0396,0.0358,0.0358,0.0358,0.0358,0,0.0249,0.0253,0.0202,0.0154,0.013,0.0077,-0.0013,-0.007,-0.0083,-0.0132,-0.0129,-0.0094,-0.0024,0.0066,0.0168,0.022,0.0292,0.0307,0.03,0.0324,0.0328,0.0329,0.0311,0.031,0.0309,0.0309,0.0308,0,0.0227,0.0211,0.0163,0.0125,0.0102,0.0025,-0.0038,-0.009,-0.0137,-0.017,-0.0191,-0.0144,-0.0105,0.001,0.0118,0.0239,0.0263,0.0286,0.032,0.0299,0.0322,0.0323,0.0325,0.0308,0.0307,0.0307,0.0307,0,0.0172,0.0174,0.0139,0.008,0.0018,-0.0066,-0.0142,-0.0186,-0.0239,-0.0246,-0.0247,-0.0186,-0.0125,-0.0008,0.0078,0.0174,0.0271,0.0281,0.0283,0.0315,0.0295,0.0319,0.0321,0.0305,0.0305,0.0305,0.0306,0,0.0132,0.0102,0.0078,0.0015,-0.0053,-0.0132,-0.0179,-0.0236,-0.0283,-0.0301,-0.0297,-0.0219,-0.0167,-0.0045,0.0044,0.0128,0.0156,0.0188,0.0196,0.02,0.0179,0.0139,0.01,0,0,0,0,0,0.0088,0.0056,0.0,-0.0063,-0.0122,-0.0158,-0.0242,-0.0278,-0.0313,-0.0323,-0.0313,-0.0251,-0.0133,-0.0075,0.0005,0.0038,0.0172,0.0133,0.0213,0.0294,0.0296,0.0291,0,0,0,0,0,0,0.0054,0.0012,-0.0006,-0.0099,-0.0149,-0.0227,-0.0277,-0.0306,-0.0309,-0.0318,-0.0251,-0.0223,-0.0099,-0.0165,0.0015,0.0039,0.0099,0.0193,0.0195,0.0292,0.0294,0.0296,0.0292,0,0,0,0,0]}]]